Stations météo

réclame
Mon MeteoGroup
Oostende Airport, Belgique (6407): Température de l'air & dewpoint: 20.10.2020 22:00:00 - 26.10.2020 22:00:00 (CET)Oostende Airport, Belgique (6407): Vitesse du vent & gusts: 20.10.2020 22:00:00 - 26.10.2020 22:00:00 (CET)Oostende Airport, Belgique (6407): Direction du vent: 20.10.2020 22:00:00 - 26.10.2020 22:00:00 (CET)Oostende Airport, Belgique (6407): reduced air pressure: 20.10.2020 22:00:00 - 26.10.2020 22:00:00 (CET)Oostende Airport, Belgique (6407): visibility: 20.10.2020 22:00:00 - 26.10.2020 22:00:00 (CET)
Date & Time tt [°C] td [°C] ff [km/h] ff [knt] fx [km/h] fx [knt] dd ppp [hPa] vv [km]
26.10.2020 22:00:00 8,6 7,2 16 9 - - SW 1001,7 10
26.10.2020 21:00:00 8,6 7,3 9 5 32 18 SW 1001,4 10
26.10.2020 20:00:00 9,2 7,4 26 14 36 19 SSW 1001,1 10
26.10.2020 19:00:00 9,7 7,8 26 14 - - SSW 1000,6 10
26.10.2020 18:00:00 10,1 8,0 24 13 40 21 SW 1000,0 10
26.10.2020 17:00:00 10,4 7,7 26 14 47 25 SW 999,9 10
26.10.2020 16:00:00 10,6 7,8 28 15 - - SW 999,8 10
26.10.2020 15:00:00 11,4 7,8 34 18 50 27 SW 999,7 10
26.10.2020 14:00:00 10,8 7,5 34 18 54 29 SW 999,9 10
26.10.2020 13:00:00 11,3 7,7 35 19 - - SW 1000,0 10
26.10.2020 12:00:00 10,2 7,8 34 18 50 27 SSW 1000,2 10
26.10.2020 11:00:00 9,7 7,3 31 17 50 27 SSW 1000,3 10
26.10.2020 10:00:00 9,0 6,7 26 14 - - SSW 1000,3 10
26.10.2020 09:00:00 7,7 6,1 18 10 29 16 S 1000,1 10
26.10.2020 08:00:00 7,3 5,6 18 10 29 16 S 999,5 10
26.10.2020 07:00:00 7,5 5,9 16 9 - - S 999,2 10
26.10.2020 06:00:00 7,7 5,9 24 13 32 18 SSW 999,1 10
26.10.2020 05:00:00 7,1 5,8 16 9 25 14 SSW 998,6 10
26.10.2020 04:00:00 7,8 6,3 16 9 - - S 999,1 10
26.10.2020 03:00:00 6,9 5,5 15 8 22 12 SSW 998,7 10
26.10.2020 02:00:00 7,6 6,0 13 7 25 14 SW 999,8 10
26.10.2020 01:00:00 7,9 6,3 16 9 - - S 999,7 10
26.10.2020 00:00:00 8,1 6,1 18 10 29 16 S 999,8 10
25.10.2020 23:00:00 7,9 6,0 15 8 25 14 S 999,9 10
25.10.2020 22:00:00 8,5 5,9 18 10 - - S 999,9 10
25.10.2020 21:00:00 9,6 7,2 16 9 25 14 S 999,7 10
25.10.2020 20:00:00 9,2 7,7 11 6 18 10 S 999,8 10
25.10.2020 19:00:00 9,4 7,4 9 5 - - S 1000,1 10
25.10.2020 18:00:00 9,4 7,8 8 4 29 16 S 1000,2 10
25.10.2020 17:00:00 9,5 8,0 15 8 36 19 WSW 1000,3 5
25.10.2020 16:00:00 10,1 7,2 26 14 - - W 999,6 10
25.10.2020 15:00:00 12,6 8,8 26 14 40 21 SSW 999,7 10
25.10.2020 14:00:00 12,6 8,9 26 14 40 21 SSW 1000,2 10
25.10.2020 13:00:00 12,5 9,5 21 11 - - SSW 1001,0 10
25.10.2020 12:00:00 12,0 9,6 15 8 29 16 S 1000,7 10
25.10.2020 11:00:00 11,2 9,3 18 10 29 16 SSW 1001,1 10
25.10.2020 10:00:00 10,9 9,0 18 10 - - SSW 1001,0 10
25.10.2020 09:00:00 10,6 8,9 15 8 25 14 S 1000,7 10
25.10.2020 08:00:00 10,3 9,3 15 8 32 18 S 1000,5 10
25.10.2020 07:00:00 10,4 9,4 24 13 - - SSW 1000,6 10
25.10.2020 06:00:00 10,9 9,3 24 13 40 21 SSW 1000,0 10
25.10.2020 05:00:00 11,4 9,6 22 12 47 25 S 999,3 10
25.10.2020 04:00:00 12,1 9,5 34 18 - - SW 1000,1 10
25.10.2020 03:00:00 13,8 11,3 29 16 50 27 SSW 999,6 10
25.10.2020 02:00:00 14,7 10,7 34 18 61 33 S 1000,2 10
25.10.2020 01:00:00 - - - - - - - - -
25.10.2020 00:00:00 15,5 11,5 37 20 65 35 SSW 1000,8 10
24.10.2020 23:00:00 15,3 11,8 39 21 65 35 S 1001,1 10
24.10.2020 22:00:00 15,3 11,9 31 17 - - S 1001,4 10
24.10.2020 21:00:00 15,4 12,4 35 19 54 29 S 1002,7 10
24.10.2020 20:00:00 15,3 12,5 28 15 47 25 S 1003,4 10
24.10.2020 19:00:00 15,2 12,2 29 16 - - S 1003,8 10
24.10.2020 18:00:00 15,2 12,1 29 16 40 21 S 1004,6 30
24.10.2020 17:00:00 15,1 12,3 22 12 43 23 S 1005,8 10
24.10.2020 16:00:00 15,7 12,1 31 17 - - SSW 1006,7 10
24.10.2020 15:00:00 15,1 12,1 28 15 47 25 S 1007,5 10
24.10.2020 14:00:00 15,1 11,3 31 17 50 27 S 1008,1 10
24.10.2020 13:00:00 14,8 12,2 26 14 - - S 1008,7 10
24.10.2020 12:00:00 14,6 11,3 28 15 47 25 S 1009,4 10
24.10.2020 11:00:00 13,7 10,6 28 15 40 21 SSW 1009,9 10
24.10.2020 10:00:00 12,7 10,6 21 11 - - S 1010,2 10
24.10.2020 09:00:00 11,8 10,4 21 11 36 19 S 1010,2 10
24.10.2020 08:00:00 11,6 10,4 24 13 36 19 SSW 1010,2 10
24.10.2020 07:00:00 11,5 10,3 21 11 - - S 1010,4 10
24.10.2020 06:00:00 11,6 10,3 15 8 29 16 S 1010,6 10
24.10.2020 05:00:00 11,1 10,0 21 11 29 16 SSW 1010,9 7
24.10.2020 04:00:00 11,0 9,7 15 8 - - SSW 1011,5 10
24.10.2020 03:00:00 11,2 9,4 18 10 29 16 SSW 1011,9 10
24.10.2020 02:00:00 11,0 9,7 15 8 29 16 SSW 1012,0 10
24.10.2020 01:00:00 11,3 10,0 22 12 - - SW 1012,0 20
24.10.2020 00:00:00 11,6 9,9 28 15 36 19 SSW 1011,8 10
23.10.2020 23:00:00 11,5 9,4 18 10 29 16 SSW 1011,8 10
23.10.2020 22:00:00 11,5 9,4 13 7 - - SSW 1011,5 10
23.10.2020 21:00:00 11,8 9,3 15 8 43 23 SW 1011,0 10
23.10.2020 20:00:00 13,5 10,7 26 14 36 19 WSW 1010,9 10
23.10.2020 19:00:00 13,6 10,9 21 11 - - SW 1010,6 10
23.10.2020 18:00:00 13,4 10,7 18 10 32 18 SW 1010,0 10
23.10.2020 17:00:00 14,5 10,6 22 12 32 18 SW 1009,7 10
23.10.2020 16:00:00 15,5 10,7 21 11 - - SW 1009,8 10
23.10.2020 15:00:00 15,7 11,2 18 10 36 19 SW 1009,6 10
23.10.2020 14:00:00 15,3 11,2 22 12 36 19 SW 1009,9 10
23.10.2020 13:00:00 16,1 12,8 22 12 - - SW 1009,9 10
23.10.2020 12:00:00 15,0 12,7 21 11 29 16 SSW 1010,2 10
23.10.2020 11:00:00 13,0 11,7 13 7 18 10 SSW 1010,3 9
23.10.2020 10:00:00 11,3 10,6 11 6 - - S 1010,4 5
23.10.2020 09:00:00 9,9 9,6 9 5 14 8 S 1010,5 0,5
23.10.2020 08:00:00 9,0 8,6 5 3 11 6 SSE 1010,3 0,8
23.10.2020 07:00:00 8,6 8,5 5 3 - - SSE 1010,1 0,2
23.10.2020 06:00:00 7,4 6,9 8 4 7 4 SSE 1010,3 4,0
23.10.2020 05:00:00 7,2 7,1 4 2 7 4 SE 1010,7 6
23.10.2020 04:00:00 7,5 6,2 0 0 - - N 1011,1 9
23.10.2020 03:00:00 8,6 8,2 4 2 7 4 - 1011,8 9
23.10.2020 02:00:00 9,7 8,6 5 3 11 6 S 1012,1 10
23.10.2020 01:00:00 9,0 8,2 7 4 - - S 1012,2 10
23.10.2020 00:00:00 7,6 6,7 5 3 11 6 WSW 1012,2 10
22.10.2020 23:00:00 8,9 7,5 8 4 18 10 SSW 1012,3 10
22.10.2020 22:00:00 9,6 8,4 14 8 - - SSW 1012,4 15
22.10.2020 21:00:00 9,7 8,4 11 6 14 8 SSW 1012,2 10
22.10.2020 20:00:00 9,9 8,5 9 5 11 6 SW 1011,9 10
22.10.2020 19:00:00 11,3 9,7 9 5 - - SW 1012,0 10
22.10.2020 18:00:00 12,8 10,2 13 7 25 14 WSW 1011,6 10
22.10.2020 17:00:00 14,9 10,8 18 10 29 16 SW 1011,2 10
22.10.2020 16:00:00 15,5 11,0 21 11 - - SW 1011,0 10
22.10.2020 15:00:00 15,8 10,9 24 13 36 19 SW 1010,9 10
22.10.2020 14:00:00 15,5 11,5 24 13 36 19 SSW 1010,9 10
22.10.2020 13:00:00 14,2 11,6 22 12 - - SSW 1011,3 10
22.10.2020 12:00:00 14,3 10,9 24 13 32 18 SSW 1011,4 10
22.10.2020 11:00:00 13,3 10,6 21 11 29 16 SSW 1011,0 10
22.10.2020 10:00:00 11,6 9,7 16 9 - - SSW 1010,9 10
22.10.2020 09:00:00 10,8 9,1 15 8 25 14 SSW 1010,7 10
22.10.2020 08:00:00 10,4 9,0 18 10 29 16 SSW 1009,7 10
22.10.2020 07:00:00 10,6 9,1 22 12 - - SSW 1009,1 10
22.10.2020 06:00:00 11,1 9,6 22 12 32 18 SSW 1008,9 10
22.10.2020 05:00:00 11,5 10,0 24 13 32 18 SSW 1008,8 10
22.10.2020 04:00:00 11,7 10,3 16 9 - - S 1008,7 10
22.10.2020 03:00:00 11,9 10,5 16 9 29 16 SSW 1008,2 10
22.10.2020 02:00:00 13,1 11,7 16 9 25 14 SSW 1008,2 10
22.10.2020 01:00:00 12,7 11,4 15 8 - - SSW 1007,8 10
22.10.2020 00:00:00 12,8 11,6 16 9 25 14 SSW 1007,1 10
21.10.2020 23:00:00 13,4 12,1 18 10 25 14 SSW 1006,7 10
21.10.2020 22:00:00 13,4 11,8 16 9 - - SSW 1006,0 10
21.10.2020 21:00:00 13,1 11,5 15 8 40 21 SSW 1005,2 10
21.10.2020 20:00:00 14,1 12,0 24 13 54 29 SW 1004,3 10
21.10.2020 19:00:00 15,0 12,7 37 20 - - SW 1003,0 10
21.10.2020 18:00:00 15,2 12,8 40 21 61 33 SW 1001,3 20
21.10.2020 17:00:00 15,7 13,8 34 18 61 33 SW 999,7 10
21.10.2020 16:00:00 17,7 12,8 44 24 - - SW 998,6 10
21.10.2020 15:00:00 17,2 14,4 44 24 68 37 SSW 997,8 10
21.10.2020 14:00:00 17,4 14,4 44 24 79 43 SSW 996,4 10
21.10.2020 13:00:00 18,8 13,4 54 29 - - SSW 995,4 10
21.10.2020 12:00:00 17,6 12,6 35 19 58 31 S 995,2 10
21.10.2020 11:00:00 15,5 11,8 35 19 54 29 SSE 995,6 10
21.10.2020 10:00:00 13,4 11,9 28 15 - - SSE 997,0 10
21.10.2020 09:00:00 12,9 11,7 29 16 47 25 SSE 998,5 6
21.10.2020 08:00:00 12,9 11,8 29 16 43 23 SSE 998,8 10
21.10.2020 07:00:00 12,7 11,7 24 13 - - SSE 999,3 8
21.10.2020 06:00:00 12,8 11,9 24 13 32 18 SSE 1000,3 6
21.10.2020 05:00:00 12,9 12,1 21 11 32 18 SSE 1001,3 6
21.10.2020 04:00:00 13,2 12,2 22 12 - - SSE 1001,8 10
21.10.2020 03:00:00 13,3 12,3 21 11 32 18 SSE 1002,5 10
21.10.2020 02:00:00 13,7 12,4 21 11 32 18 S 1003,4 10
21.10.2020 01:00:00 13,9 12,4 16 9 - - S 1003,8 10
21.10.2020 00:00:00 14,1 12,5 16 9 32 18 S 1004,3 10
20.10.2020 23:00:00 14,1 12,4 21 11 32 18 S 1004,7 10
20.10.2020 22:00:00 14,0 12,3 21 11 - - S 1005,1 10

tt = Température de l'air
td = dewpoint
ff = Vitesse du vent
fx = gusts
dd = Direction du vent
ppp = reduced air pressure
vv = visibility

stations d'obs. à proximité